�������l�o���
Date,Time,MP-1(��Sv/h),MP-2(��Sv/h),MP-3(��Sv/h),MP-4(��Sv/h),MP-5(��Sv/h),MP-6(��Sv/h),MP-7(��Sv/h),MP-8(��Sv/h),����,����(m/s),���J
2021/06/30,00:00,0.604,0.886,0.570,1.085,0.769,0.365,0.633,0.596,�k�k��,5.4,��
2021/06/30,00:10,0.605,0.886,0.570,1.085,0.768,0.363,0.634,0.594,�k�k��,5.7,��
2021/06/30,00:20,0.605,0.889,0.572,1.085,0.769,0.363,0.634,0.595,�k�k��,6.6,��
2021/06/30,00:30,0.604,0.887,0.572,1.085,0.770,0.364,0.633,0.595,�k�k��,5.9,��
2021/06/30,00:40,0.606,0.885,0.571,1.087,0.769,0.364,0.635,0.596,�k�k��,6.1,��
2021/06/30,00:50,0.605,0.886,0.571,1.087,0.771,0.364,0.632,0.595,�k�k��,5.2,��
2021/06/30,01:00,0.606,0.885,0.572,1.087,0.770,0.366,0.634,0.595,�k�k��,5.6,��
2021/06/30,01:10,0.606,0.886,0.570,1.089,0.770,0.363,0.634,0.595,�k�k��,5.6,��
2021/06/30,01:20,0.604,0.885,0.571,1.087,0.770,0.363,0.635,0.595,�k�k��,6.3,��
2021/06/30,01:30,0.605,0.885,0.571,1.086,0.769,0.364,0.634,0.597,�k�k��,4.8,��
2021/06/30,01:40,0.605,0.885,0.570,1.087,0.771,0.365,0.633,0.594,�k�k��,5.2,��
2021/06/30,01:50,0.605,0.887,0.572,1.086,0.770,0.363,0.633,0.595,�k�k��,5.7,��
2021/06/30,02:00,0.606,0.882,0.572,1.087,0.771,0.364,0.635,0.596,�k�k��,4.9,��
2021/06/30,02:10,0.606,0.886,0.571,1.084,0.769,0.363,0.636,0.594,�k�k��,5.3,��
2021/06/30,02:20,0.604,0.887,0.573,1.089,0.770,0.363,0.634,0.595,�k�k��,5.4,��
2021/06/30,02:30,0.606,0.886,0.570,1.086,0.771,0.364,0.636,0.595,�k�k��,6.3,��
2021/06/30,02:40,0.606,0.885,0.572,1.087,0.771,0.365,0.635,0.596,�k�k��,5.7,��
2021/06/30,02:50,0.607,0.887,0.569,1.087,0.771,0.365,0.634,0.596,�k�k��,4.8,��
2021/06/30,03:00,0.606,0.884,0.571,1.089,0.770,0.364,0.635,0.595,�k�k��,4.9,��
2021/06/30,03:10,0.606,0.887,0.571,1.088,0.772,0.365,0.635,0.595,�k��,3.3,��
2021/06/30,03:20,0.606,0.886,0.570,1.087,0.770,0.365,0.635,0.595,�k��,4.1,��
2021/06/30,03:30,0.604,0.887,0.570,1.087,0.772,0.364,0.634,0.595,�k�k��,5.1,��
2021/06/30,03:40,0.605,0.886,0.572,1.088,0.770,0.364,0.635,0.595,�k��,4.6,��
2021/06/30,03:50,0.604,0.885,0.569,1.088,0.768,0.363,0.636,0.596,�k��,4.5,��
2021/06/30,04:00,0.607,0.887,0.571,1.088,0.773,0.364,0.634,0.597,�k�k��,4.1,��
2021/06/30,04:10,0.604,0.886,0.570,1.088,0.770,0.363,0.635,0.594,�k�k��,4.5,��
2021/06/30,04:20,0.606,0.887,0.571,1.087,0.772,0.364,0.634,0.594,�k�k��,4.2,��
2021/06/30,04:30,0.606,0.886,0.571,1.090,0.771,0.365,0.636,0.595,�k��,4.0,��
2021/06/30,04:40,0.606,0.886,0.570,1.088,0.770,0.364,0.634,0.595,�k��,4.1,��
2021/06/30,04:50,0.606,0.884,0.571,1.087,0.772,0.365,0.634,0.594,�k��,4.3,��
2021/06/30,05:00,0.606,0.886,0.571,1.088,0.771,0.363,0.635,0.595,�k�k��,4.2,��
2021/06/30,05:10,0.604,0.887,0.571,1.086,0.770,0.365,0.635,0.594,�k�k��,4.6,��
2021/06/30,05:20,0.605,0.886,0.570,1.089,0.771,0.364,0.635,0.596,�k�k��,4.8,��
2021/06/30,05:30,0.606,0.887,0.571,1.087,0.772,0.364,0.634,0.596,�k,4.5,��
2021/06/30,05:40,0.606,0.886,0.571,1.088,0.772,0.364,0.635,0.594,�k,4.1,��
2021/06/30,05:50,0.605,0.886,0.571,1.089,0.772,0.364,0.633,0.596,�k,3.3,��
2021/06/30,06:00,0.607,0.885,0.573,1.089,0.773,0.364,0.636,0.597,�k�k��,2.9,��
2021/06/30,06:10,0.606,0.887,0.572,1.088,0.772,0.364,0.636,0.596,�k,2.6,��
2021/06/30,06:20,0.606,0.889,0.570,1.089,0.772,0.364,0.636,0.595,�k�k��,2.0,��
2021/06/30,06:30,0.610,0.889,0.571,1.090,0.772,0.365,0.635,0.595,�k,2.2,��
2021/06/30,06:40,0.608,0.887,0.571,1.087,0.774,0.364,0.637,0.596,�k��,1.5,��
2021/06/30,06:50,0.606,0.887,0.570,1.088,0.772,0.364,0.636,0.595,�k�k��,2.0,��
2021/06/30,07:00,0.606,0.886,0.571,1.086,0.773,0.363,0.636,0.597,���k��,2.0,��
2021/06/30,07:10,0.605,0.886,0.571,1.089,0.770,0.362,0.635,0.596,�k��,2.0,��
2021/06/30,07:20,0.604,0.887,0.572,1.088,0.773,0.362,0.634,0.595,�k��,2.0,��
2021/06/30,07:30,0.605,0.886,0.572,1.090,0.770,0.362,0.633,0.595,�k��,2.0,��
2021/06/30,07:40,0.605,0.886,0.571,1.090,0.772,0.364,0.633,0.595,�k��,2.3,��
2021/06/30,07:50,0.605,0.888,0.571,1.089,0.773,0.364,0.633,0.593,���k��,2.5,��
2021/06/30,08:00,0.603,0.884,0.571,1.091,0.773,0.363,0.636,0.594,�k��,2.8,��
2021/06/30,08:10,0.605,0.884,0.571,1.088,0.772,0.362,0.636,0.593,�k��,2.5,��
2021/06/30,08:20,0.604,0.885,0.571,1.088,0.771,0.362,0.634,0.593,�k�k��,2.6,��
2021/06/30,08:30,0.605,0.884,0.571,1.088,0.773,0.363,0.635,0.593,�k��,3.0,��
2021/06/30,08:40,0.605,0.885,0.571,1.089,0.772,0.362,0.635,0.594,���k��,3.1,��
2021/06/30,08:50,0.607,0.886,0.571,1.090,0.772,0.361,0.635,0.594,�k��,2.0,��
2021/06/30,09:00,0.605,0.885,0.570,1.090,0.773,0.364,0.634,0.593,���k��,2.5,��
2021/06/30,09:10,0.606,0.887,0.569,1.089,0.774,0.363,0.634,0.595,���k��,2.0,��
2021/06/30,09:20,0.606,0.885,0.569,1.089,0.772,0.363,0.635,0.593,���k��,2.3,��
2021/06/30,09:30,0.607,0.887,0.571,1.092,0.772,0.363,0.635,0.594,���k��,2.3,��
2021/06/30,09:40,0.608,0.887,0.571,1.086,0.775,0.363,0.635,0.594,���k��,1.9,��
2021/06/30,09:50,0.605,0.887,0.570,1.088,0.774,0.364,0.635,0.593,��,2.0,��
2021/06/30,10:00,0.607,0.885,0.571,1.089,0.772,0.363,0.635,0.594,��,1.9,��
2021/06/30,10:10,0.606,0.886,0.571,1.090,0.775,0.365,0.635,0.594,��,2.6,��
2021/06/30,10:20,0.607,0.887,0.571,1.090,0.776,0.364,0.637,0.595,���쓌,2.5,��
2021/06/30,10:30,0.607,0.891,0.569,1.091,0.774,0.363,0.636,0.596,��,2.6,��
2021/06/30,10:40,0.606,0.890,0.571,1.091,0.774,0.363,0.636,0.593,��,2.8,��
2021/06/30,10:50,0.608,0.890,0.572,1.090,0.774,0.364,0.635,0.595,���쓌,2.5,��
2021/06/30,11:00,0.608,0.890,0.573,1.090,0.776,0.365,0.638,0.594,��,3.0,��
2021/06/30,11:10,0.608,0.890,0.573,1.089,0.775,0.365,0.635,0.595,���쓌,2.6,��
2021/06/30,11:20,0.608,0.891,0.572,1.089,0.775,0.364,0.638,0.593,���쓌,3.3,��
2021/06/30,11:30,0.609,0.893,0.572,1.090,0.778,0.363,0.637,0.596,��,3.3,��
2021/06/30,11:40,0.609,0.893,0.574,1.091,0.776,0.364,0.636,0.595,��,3.2,��
2021/06/30,11:50,0.609,0.893,0.575,1.090,0.778,0.364,0.637,0.593,�쓌,3.5,��
2021/06/30,12:00,0.608,0.895,0.574,1.092,0.777,0.365,0.637,0.594,�쓌,2.5,��
2021/06/30,12:10,0.610,0.897,0.575,1.093,0.779,0.364,0.637,0.595,�쓌,2.3,��
2021/06/30,12:20,0.610,0.897,0.574,1.092,0.779,0.364,0.637,0.595,���쓌,3.4,��
2021/06/30,12:30,0.609,0.895,0.574,1.091,0.780,0.363,0.636,0.594,���쓌,2.6,��
2021/06/30,12:40,0.611,0.896,0.576,1.093,0.778,0.363,0.638,0.595,���쓌,3.2,��
2021/06/30,12:50,0.610,0.897,0.576,1.093,0.781,0.362,0.636,0.595,���쓌,3.6,��
2021/06/30,13:00,0.611,0.895,0.574,1.094,0.779,0.364,0.637,0.595,���쓌,3.2,��
2021/06/30,13:10,0.610,0.894,0.577,1.094,0.781,0.363,0.637,0.596,���쓌,3.2,��
2021/06/30,13:20,0.608,0.894,0.574,1.094,0.782,0.364,0.637,0.593,�쓌,4.0,��
2021/06/30,13:30,0.610,0.894,0.574,1.092,0.780,0.364,0.637,0.595,�쓌,3.1,��
2021/06/30,13:40,0.610,0.894,0.576,1.095,0.781,0.365,0.636,0.596,�쓌,3.3,��
2021/06/30,13:50,0.609,0.894,0.575,1.093,0.781,0.364,0.639,0.595,�쓌,3.9,��
2021/06/30,14:00,0.611,0.898,0.575,1.095,0.782,0.365,0.638,0.594,�쓌,4.0,��
2021/06/30,14:10,0.610,0.895,0.575,1.094,0.782,0.364,0.636,0.593,�쓌,3.5,��
2021/06/30,14:20,0.610,0.897,0.574,1.093,0.784,0.365,0.638,0.595,�쓌,3.5,��
2021/06/30,14:30,0.611,0.896,0.576,1.096,0.782,0.365,0.639,0.594,�쓌,3.3,��
2021/06/30,14:40,0.610,0.898,0.576,1.096,0.782,0.364,0.637,0.594,�쓌,3.4,��
2021/06/30,14:50,0.612,0.895,0.576,1.095,0.783,0.364,0.637,0.595,�쓌,4.1,��
2021/06/30,15:00,0.610,0.896,0.575,1.095,0.782,0.364,0.637,0.595,�쓌,4.5,��
2021/06/30,15:10,0.609,0.898,0.576,1.096,0.781,0.364,0.638,0.595,�쓌,4.6,��
2021/06/30,15:20,0.611,0.896,0.576,1.096,0.782,0.365,0.639,0.594,�쓌,4.0,��
2021/06/30,15:30,0.610,0.898,0.576,1.098,0.782,0.365,0.639,0.594,�쓌,3.7,��
2021/06/30,15:40,0.610,0.898,0.577,1.094,0.781,0.365,0.637,0.594,�쓌,4.0,��
2021/06/30,15:50,0.612,0.897,0.574,1.095,0.783,0.365,0.637,0.595,�쓌,4.4,��
2021/06/30,16:00,0.611,0.898,0.575,1.097,0.783,0.364,0.637,0.594,��쓌,3.1,��
2021/06/30,16:10,0.611,0.899,0.577,1.096,0.783,0.365,0.637,0.594,�쓌,3.7,��
2021/06/30,16:20,0.611,0.899,0.575,1.095,0.784,0.365,0.636,0.593,��쓌,3.8,��
2021/06/30,16:30,0.608,0.899,0.575,1.096,0.782,0.365,0.637,0.595,�쓌,2.6,��
2021/06/30,16:40,0.610,0.898,0.576,1.097,0.784,0.364,0.637,0.595,�쓌,3.9,��
2021/06/30,16:50,0.610,0.899,0.576,1.096,0.784,0.365,0.636,0.595,�쓌,3.4,��
2021/06/30,17:00,0.611,0.900,0.576,1.098,0.784,0.366,0.638,0.595,�쓌,3.5,��
2021/06/30,17:10,0.610,0.899,0.575,1.100,0.783,0.365,0.635,0.594,��쓌,3.8,��
2021/06/30,17:20,0.610,0.902,0.577,1.103,0.783,0.364,0.637,0.596,��쓌,3.2,��
2021/06/30,17:30,0.610,0.901,0.576,1.102,0.784,0.364,0.637,0.594,��쓌,3.6,��
2021/06/30,17:40,0.610,0.901,0.577,1.100,0.782,0.366,0.638,0.595,��쓌,3.8,��
2021/06/30,17:50,0.612,0.900,0.575,1.099,0.784,0.364,0.636,0.596,��쓌,4.3,��
2021/06/30,18:00,0.610,0.901,0.576,1.100,0.784,0.364,0.637,0.595,��쓌,4.7,��
2021/06/30,18:10,0.611,0.901,0.577,1.100,0.784,0.363,0.637,0.595,��쓌,4.4,��
2021/06/30,18:20,0.611,0.901,0.577,1.101,0.783,0.364,0.638,0.593,��쓌,4.9,��
2021/06/30,18:30,0.608,0.900,0.577,1.100,0.784,0.365,0.637,0.595,��쓌,4.8,��
2021/06/30,18:40,0.611,0.901,0.576,1.100,0.784,0.363,0.638,0.596,��쓌,4.7,��
2021/06/30,18:50,0.612,0.900,0.576,1.103,0.783,0.364,0.639,0.597,��쓌,4.6,��
2021/06/30,19:00,0.610,0.900,0.577,1.101,0.786,0.364,0.637,0.597,��,4.2,��
2021/06/30,19:10,0.611,0.904,0.578,1.101,0.783,0.365,0.638,0.596,��,4.9,��
2021/06/30,19:20,0.612,0.906,0.580,1.099,0.785,0.364,0.639,0.597,��,4.9,��
2021/06/30,19:30,0.612,0.904,0.580,1.102,0.786,0.366,0.638,0.597,��,4.6,��
2021/06/30,19:40,0.612,0.905,0.580,1.101,0.788,0.366,0.637,0.598,��,4.4,��
2021/06/30,19:50,0.612,0.905,0.578,1.100,0.786,0.366,0.640,0.596,��,4.3,��
2021/06/30,20:00,0.614,0.905,0.578,1.101,0.786,0.365,0.641,0.596,��,4.2,��
2021/06/30,20:10,0.614,0.903,0.579,1.099,0.785,0.368,0.638,0.598,��,4.8,��
2021/06/30,20:20,0.613,0.907,0.579,1.101,0.787,0.366,0.641,0.597,��,4.8,��
2021/06/30,20:30,0.614,0.906,0.578,1.100,0.787,0.366,0.640,0.597,��,4.9,��
2021/06/30,20:40,0.613,0.905,0.578,1.102,0.787,0.367,0.638,0.597,��,4.2,��
2021/06/30,20:50,0.613,0.905,0.579,1.100,0.787,0.366,0.640,0.597,��,3.7,��
2021/06/30,21:00,0.613,0.907,0.578,1.100,0.788,0.366,0.638,0.597,��,4.5,��
2021/06/30,21:10,0.613,0.907,0.578,1.100,0.786,0.366,0.639,0.598,��,4.9,��
2021/06/30,21:20,0.613,0.906,0.580,1.100,0.787,0.366,0.638,0.597,��,4.7,��
2021/06/30,21:30,0.612,0.903,0.579,1.101,0.787,0.366,0.640,0.597,��,4.8,��
2021/06/30,21:40,0.615,0.906,0.578,1.103,0.787,0.366,0.640,0.598,��쓌,4.4,��
2021/06/30,21:50,0.614,0.905,0.580,1.102,0.787,0.366,0.638,0.597,��쓌,3.5,��
2021/06/30,22:00,0.613,0.907,0.579,1.102,0.787,0.366,0.640,0.597,��쓌,3.3,��
2021/06/30,22:10,0.612,0.908,0.578,1.101,0.787,0.366,0.639,0.597,��쓌,2.8,��
2021/06/30,22:20,0.613,0.906,0.578,1.099,0.787,0.365,0.640,0.598,��,3.2,��
2021/06/30,22:30,0.612,0.907,0.578,1.102,0.786,0.367,0.639,0.598,��쓌,3.1,��
2021/06/30,22:40,0.614,0.905,0.580,1.102,0.787,0.366,0.638,0.597,��쓌,3.5,��
2021/06/30,22:50,0.612,0.907,0.579,1.102,0.789,0.366,0.639,0.597,��쓌,4.0,��
2021/06/30,23:00,0.614,0.906,0.579,1.103,0.788,0.366,0.639,0.596,��,3.1,��
2021/06/30,23:10,0.615,0.906,0.578,1.100,0.788,0.367,0.640,0.599,��,2.3,��
2021/06/30,23:20,0.614,0.906,0.580,1.099,0.787,0.365,0.639,0.597,��,2.6,��
2021/06/30,23:30,0.614,0.904,0.578,1.101,0.787,0.366,0.639,0.597,��,3.3,��
2021/06/30,23:40,0.612,0.906,0.578,1.100,0.789,0.366,0.639,0.597,��쐼,2.9,��
2021/06/30,23:50,0.615,0.906,0.580,1.099,0.787,0.368,0.638,0.597,��,3.7,��
